RH
72 69 72 64 34 29 32 55 73 64 64 64 56 44 37 42 36 15 8 16 16 13 9 6 6 10 16 29 42 51 56 53 50 49 51 51 52 50 49 47 46 44 38 29 22
83 77 69 71 62 31 29 46 69 63 65 65 64 61 54 33 29 13 14 18 21 15 12 7 8 12 19 28 40 50 55 53 50 47 48 52 52 52 50 48 45 43 32 26 18
76 83 77 71 73 51 30 33 56 61 70 70 69 62 60 58 37 12 11 18 23 17 14 11 9 14 21 23 33 45 52 54 52 46 42 45 44 46 45 42 38 31 25 16 8
41 86 87 80 76 72 39 30 42 57 69 71 78 72 66 58 43 28 12 18 23 19 16 15 12 16 24 29 30 42 49 52 51 49 46 38 33 35 34 30 25 16 8 8 8
90 54 95 86 81 78 59 32 36 52 71 74 68 66 62 61 53 20 21 23 24 20 19 17 18 17 21 27 29 36 42 44 36 32 34 38 39 35 28 25 14 8 7 8 8
97 91 57 91 89 82 81 39 34 58 74 69 56 50 46 57 54 25 24 28 28 25 22 22 20 25 26 24 24 25 25 27 18 16 18 16 15 15 7 11 10 9 10 9 8
100 100 88 64 92 99 88 65 32 55 74 66 58 49 48 48 50 44 18 30 29 27 27 30 29 28 28 29 28 26 24 24 18 19 21 16 13 7 10 9 10 12 14 11 10
100 100 96 75 98 100 94 84 40 46 78 73 68 53 50 52 54 48 23 31 31 28 30 34 36 36 40 36 34 32 31 28 21 18 19 20 12 12 10 14 16 16 12 15 16
99 100 100 99 89 95 98 94 65 34 74 82 75 61 58 50 47 56 37 29 34 33 34 36 39 41 41 40 40 37 34 28 24 22 23 24 19 19 16 21 21 19 16 14 20
99 99 100 100 99 96 99 100 95 38 60 84 82 70 63 46 40 50 45 36 39 35 36 39 41 40 39 41 41 39 36 33 29 26 28 27 20 19 21 21 20 20 17 16 16
67 100 100 100 99 99 100 99 98 82 37 64 71 62 61 50 43 44 48 37 46 41 41 38 41 41 33 37 40 42 39 38 28 34 37 28 26 19 20 19 17 17 17 16 18
26 100 96 100 99 100 100 96 98 83 53 46 80 71 67 67 58 46 47 35 47 47 44 48 43 34 40 41 42 42 41 39 34 36 44 39 34 22 18 15 12 13 10 12 16
32 96 99 100 100 96 100 99 99 100 91 41 58 67 75 70 53 47 48 38 40 47 48 45 43 41 40 41 42 41 42 39 41 43 42 37 31 20 14 11 10 9 9 10 13
15 75 96 100 100 95 98 99 100 100 99 75 45 54 72 77 68 65 52 45 38 49 49 51 46 45 41 41 41 44 40 44 43 46 43 42 40 34 20 15 9 8 9 12 13
23 20 97 99 100 100 100 99 100 100 97 67 56 48 55 68 57 58 53 51 37 35 50 55 49 48 48 44 43 44 43 45 49 46 48 46 40 32 23 16 12 11 10 10 13
26 24 53 93 99 99 100 99 100 99 95 62 55 50 48 60 68 62 51 52 49 42 50 49 48 50 44 46 46 48 50 52 49 48 47 45 40 31 18 15 14 16 14 12 14
39 26 25 78 93 100 100 99 98 97 73 63 57 53 52 53 63 62 57 51 50 58 62 62 58 55 52 49 50 51 52 55 50 50 50 36 38 27 20 17 17 19 20 18 14
56 44 19 51 87 99 99 99 97 87 72 61 55 57 61 62 59 55 55 54 49 50 58 60 60 59 56 52 49 46 48 54 61 47 43 40 40 22 21 23 22 21 19 21 22
64 42 24 27 63 98 98 99 96 84 74 60 61 64 67 65 60 59 57 58 54 47 52 57 56 51 53 52 50 46 53 50 48 46 46 35 29 25 20 18 16 20 19 18 22
72 58 27 21 32 97 97 95 99 90 75 59 55 57 63 63 62 60 60 57 54 51 47 49 56 53 50 53 54 51 46 45 44 44 48 36 30 22 20 18 17 18 21 22 19
84 92 45 38 52 97 95 91 98 97 69 60 52 51 49 51 59 55 53 52 50 51 51 51 46 52 53 54 52 54 53 47 44 40 40 38 30 25 22 24 23 23 23 20 20
100 100 74 77 76 97 93 96 95 99 86 61 51 45 45 44 45 50 48 45 43 47 52 53 53 48 47 51 51 50 47 50 47 46 40 40 37 28 25 25 23 22 21 22 22
98 99 88 95 99 96 87 95 97 99 91 68 54 47 42 41 46 46 46 44 46 46 52 56 55 52 51 49 46 47 48 48 48 44 41 40 36 30 26 28 25 25 24 24 26
94 97 81 93 86 91 88 100 99 98 97 94 60 51 44 41 43 43 43 45 44 44 51 55 55 53 52 49 47 46 42 42 43 44 44 41 38 36 36 34 31 28 27 27 27
82 96 84 93 96 86 100 100 97 97 98 96 92 84 58 41 46 40 45 46 51 46 53 53 56 54 51 50 49 47 45 43 43 42 44 40 39 38 39 41 34 29 28 28 26
91 95 98 70 86 98 91 97 98 98 94 92 85 67 52 47 40 42 34 35 40 49 47 54 56 52 52 51 53 52 46 42 42 42 41 38 39 43 41 33 32 31 30 25 22
46 75 97 96 92 98 95 91 90 96 89 78 77 55 55 49 44 43 37 33 33 42 47 51 51 53 53 45 54 56 53 51 44 42 40 40 35 35 36 36 34 29 27 23 24
Wind_Speed
34 33 30 28 25 25 24 21 20 18 17 14 12 10 14 16 16 13 9 11 10 9 8 9 12 16 21 25 26 22 15 12 12 12 15 16 15 14 13 12 11 12 13 15 15
37 35 33 30 28 27 26 25 23 21 20 19 16 15 12 13 15 11 15 15 12 11 10 10 13 17 21 25 26 22 20 12 13 11 12 15 16 16 17 16 16 16 17 18 17
40 37 35 33 30 28 28 27 25 24 23 22 21 19 17 14 14 10 18 16 14 13 12 11 15 17 20 23 26 25 22 16 13 13 13 16 17 20 20 20 18 20 22 19 15
44 36 37 35 33 31 29 29 27 26 24 23 22 22 20 17 9 11 16 16 15 14 13 12 13 17 19 22 24 24 24 20 17 17 18 18 18 20 22 19 22 22 20 17 14
42 43 34 38 35 34 31 30 29 27 24 23 20 18 19 20 12 13 14 18 17 15 14 13 13 14 18 19 21 24 25 23 21 22 24 25 24 25 27 23 22 20 19 18 16
43 41 44 36 36 36 34 32 31 28 25 23 21 18 17 18 15 16 14 20 20 17 16 15 13 13 12 16 17 20 22 24 24 22 23 24 25 27 21 17 21 19 17 17 15
43 43 43 42 44 38 36 34 32 31 28 26 24 21 19 10 15 17 18 21 22 20 18 16 17 16 15 12 16 16 18 18 17 19 22 21 26 25 18 20 15 14 14 13 13
40 45 43 41 42 36 37 36 35 33 32 29 28 25 22 14 17 19 20 21 24 22 20 18 18 17 15 13 10 11 15 16 14 15 16 16 24 16 11 13 13 14 14 13 13
42 43 42 44 43 38 39 39 37 36 35 32 29 27 25 19 17 19 21 23 25 24 23 21 20 20 17 17 15 16 15 14 12 11 14 15 14 5 11 13 15 15 14 16 16
43 40 45 42 42 40 41 41 39 37 38 36 33 27 25 12 17 21 23 25 25 28 27 25 25 24 23 21 18 12 15 16 16 13 13 18 25 18 18 21 21 21 19 18 18
51 39 45 42 44 42 41 45 45 42 44 42 35 34 24 13 18 17 25 27 28 30 31 30 30 32 29 23 20 18 17 21 20 18 22 24 28 27 22 27 28 25 24 23 20
47 41 46 40 44 41 43 48 42 42 38 40 40 36 30 30 26 19 23 30 33 32 32 33 37 32 24 24 22 21 20 23 23 20 18 25 30 28 26 27 27 27 28 25 24
42 52 40 44 48 52 39 46 43 43 37 40 43 42 37 33 26 23 22 30 34 36 34 35 30 34 29 28 25 25 25 25 22 23 24 26 34 27 21 18 20 22 22 26 26
31 58 52 44 46 50 48 47 44 43 26 41 46 49 45 40 39 31 24 25 36 37 35 33 32 30 20 33 30 27 24 22 21 20 14 13 11 33 29 23 19 19 22 21 24
32 46 58 51 42 48 45 40 49 48 7 24 47 43 45 47 41 38 30 27 33 38 37 32 32 34 34 29 18 20 19 23 25 20 22 23 18 16 27 25 17 17 23 24 21
31 32 55 62 47 48 37 46 53 29 11 20 27 49 51 49 47 38 29 31 30 31 37 36 33 24 28 29 27 22 16 15 17 19 10 22 20 8 15 17 14 11 12 16 22
26 33 43 64 55 30 28 52 33 13 20 25 35 43 54 56 45 47 41 36 37 30 33 32 35 35 30 23 22 26 24 6 3 3 6 10 11 23 15 18 21 17 13 13 18
26 32 39 64 63 32 37 57 16 37 32 16 36 37 46 49 48 48 46 40 41 37 28 28 18 34 30 31 26 21 26 14 6 4 3 4 8 2 8 10 10 9 10 16 13
25 33 39 54 58 46 18 46 27 38 47 24 33 37 37 44 38 49 49 47 43 46 30 26 26 13 35 30 26 20 25 26 16 6 3 12 20 25 22 20 19 18 13 10 13
23 29 40 37 40 59 37 36 27 35 32 35 33 35 40 45 39 41 44 41 46 43 42 20 11 23 24 29 34 32 22 14 13 4 5 6 9 13 17 17 17 9 11 10 10
21 27 35 35 31 33 46 39 34 39 29 46 40 36 39 43 42 41 33 29 39 43 41 36 20 12 27 32 34 32 33 22 17 16 4 2 6 11 16 12 9 8 6 5 5
21 28 30 27 31 38 51 44 42 40 36 44 41 34 38 41 42 41 41 32 23 39 47 42 24 22 22 24 31 31 32 37 25 8 13 12 17 22 10 5 3 3 4 6 2
22 32 30 20 34 41 49 46 48 41 44 40 39 41 31 38 34 42 35 29 19 24 45 45 24 20 14 17 19 27 32 31 36 29 27 13 9 12 13 13 12 14 12 7 8
27 24 24 31 37 40 44 46 50 39 45 42 45 36 33 31 38 32 35 29 29 16 29 39 31 35 23 15 28 29 25 25 32 28 24 35 34 28 23 25 18 19 14 14 18
20 21 28 17 34 40 41 41 55 42 53 52 42 45 42 31 39 23 38 32 26 23 31 32 38 35 31 28 22 23 31 32 31 29 31 31 31 26 23 27 22 19 17 25 30
16 24 15 30 32 42 47 52 56 49 52 55 44 48 48 46 44 39 27 29 34 36 28 33 17 29 36 35 30 32 27 25 26 29 36 33 39 30 29 23 16 21 20 23 24
19 21 15 21 32 27 42 58 53 61 51 49 49 40 47 40 35 37 31 29 32 33 37 34 31 19 25 27 30 32 42 38 35 33 28 32 26 16 16 14 14 17 20 19 19
Wind_Direction
248 248 248 247 246 247 246 242 247 252 254 257 263 271 270 267 270 271 246 222 228 237 239 215 197 192 190 190 192 196 205 206 209 209 214 213 221 233 245 249 266 281 291 299 304
248 247 245 246 244 244 241 241 243 246 252 254 257 264 275 277 267 264 225 212 215 223 227 217 204 198 198 199 203 205 214 220 218 223 222 223 234 242 245 253 262 273 282 287 291
248 244 243 242 243 240 240 239 239 243 250 254 259 257 262 275 273 246 232 218 211 211 224 221 210 205 206 208 209 214 219 226 230 233 234 233 236 241 250 258 271 275 278 281 277
245 244 243 240 239 241 239 238 238 242 246 252 259 258 251 257 273 243 227 218 210 210 217 220 217 214 214 216 217 224 225 235 243 248 249 249 249 250 256 269 274 279 279 278 270
243 241 245 240 237 238 238 237 237 239 243 246 249 252 251 243 241 248 225 213 209 210 212 217 221 218 221 228 229 232 235 243 256 257 258 259 259 263 262 267 277 277 277 274 272
239 242 238 243 239 236 237 235 234 234 237 235 239 246 250 241 236 240 226 212 208 211 211 213 214 219 226 231 237 239 246 251 258 262 264 263 265 262 271 271 273 276 276 271 267
238 237 238 237 241 234 232 236 232 230 230 233 238 243 244 234 236 231 223 213 210 210 212 219 223 219 228 233 239 245 253 257 256 264 271 272 264 268 275 264 271 274 279 267 259
235 235 236 233 239 229 231 233 233 227 228 231 236 240 241 244 236 227 224 216 211 211 212 215 212 212 221 225 236 252 263 268 266 263 266 265 274 271 261 253 261 274 271 260 254
233 233 236 234 236 242 236 232 231 229 227 229 232 237 243 245 237 227 225 221 213 212 213 215 216 217 223 233 246 251 256 268 268 260 261 266 266 270 235 248 256 267 268 260 256
228 233 230 230 232 233 227 234 228 228 226 227 228 231 231 236 231 225 222 218 216 213 215 217 221 225 228 227 225 244 257 266 266 264 269 270 272 265 264 262 260 262 262 264 261
224 230 225 234 232 227 239 241 220 225 223 223 227 229 231 230 237 234 219 215 216 214 218 220 223 224 227 234 245 251 261 274 272 281 279 275 278 275 270 266 269 269 268 266 259
226 222 226 229 231 219 232 236 236 229 230 225 228 227 230 240 245 237 221 215 216 218 218 223 229 235 235 240 246 255 263 269 279 286 291 287 282 282 283 277 272 269 265 256 250
230 217 216 221 227 227 231 229 230 225 228 229 227 228 228 234 233 231 227 222 221 222 222 227 234 235 235 239 245 251 259 268 279 295 293 294 292 289 285 282 276 269 267 253 238
248 219 216 217 218 230 225 228 229 229 221 228 224 227 222 227 237 236 231 226 223 225 227 234 234 236 236 240 245 252 262 263 276 288 289 294 289 291 294 288 280 270 270 257 242
247 228 221 218 212 222 230 234 223 221 197 229 221 221 223 222 228 229 227 225 226 226 220 225 234 232 236 241 247 252 262 264 270 267 282 282 284 296 301 295 288 270 265 253 238
247 238 228 231 214 214 215 225 212 187 220 194 203 212 216 217 223 227 226 223 225 226 233 235 235 234 241 244 247 252 251 263 263 268 262 278 255 284 295 295 284 276 294 247 236
256 247 234 227 216 211 205 211 176 196 209 196 192 205 212 214 211 220 219 210 209 207 218 227 231 237 239 234 231 234 238 259 272 215 248 256 245 266 288 277 269 264 281 261 232
264 253 233 224 221 201 177 199 190 201 191 190 195 198 202 207 212 214 218 216 217 216 209 208 217 223 225 228 228 231 230 202 223 218 276 257 237 223 307 300 292 287 273 253 246
276 250 238 226 229 214 239 197 204 207 196 189 182 186 195 202 209 210 216 218 222 215 206 207 221 226 224 224 221 212 216 228 244 280 276 255 265 282 280 297 273 268 268 261 240
270 246 241 236 236 219 231 215 213 204 194 200 183 190 190 196 199 206 209 224 220 220 218 213 213 219 220 220 225 225 230 205 213 213 238 249 251 262 298 282 275 283 243 240 235
264 256 247 236 235 241 223 233 216 203 199 198 200 192 201 194 201 203 207 221 219 216 216 215 214 203 214 215 219 216 221 220 231 230 206 235 252 285 292 295 276 233 222 224 213
250 250 253 245 229 231 226 224 213 215 195 198 206 209 202 204 202 207 208 215 212 216 208 213 219 221 220 225 227 234 236 227 219 214 229 250 254 270 281 357 322 238 172 142 149
268 252 249 236 231 233 234 227 223 207 192 189 202 207 208 206 203 210 209 209 209 205 210 205 215 197 213 218 216 223 225 230 234 240 239 237 250 272 258 297 287 231 226 212 314
314 263 263 234 227 237 240 227 210 205 206 197 203 202 208 211 207 211 210 212 209 214 205 208 213 210 212 219 220 226 228 230 234 228 235 241 257 270 281 272 281 232 228 257 284
310 298 235 242 228 222 222 219 213 204 212 202 210 216 205 199 203 206 204 205 198 198 195 207 216 223 229 236 240 240 232 235 240 244 234 257 264 272 271 293 255 237 262 269 276
303 317 245 237 233 218 214 210 206 200 208 204 205 205 209 209 204 197 201 207 205 199 192 204 216 226 234 238 240 241 240 242 244 254 254 255 265 275 282 276 250 248 255 263 267
307 302 283 255 229 215 220 214 209 210 213 223 199 208 206 214 221 225 231 233 218 209 207 211 214 209 231 237 242 245 241 242 244 248 249 248 259 276 275 275 279 270 269 277 268